TimeCST,TemperatureF,Dew PointF,Humidity,Sea Level PressureIn,VisibilityMPH,Wind Direction,Wind SpeedMPH,Gust SpeedMPH,PrecipitationIn,Events,Conditions,WindDirDegrees,DateUTC
12:52 AM,28.9,24.1,82,30.35,10.0,Calm,Calm,-,N/A,,Clear,0,2013-03-07 06:52:00
1:52 AM,27.0,23.0,85,30.36,10.0,NE,3.5,-,N/A,,Clear,40,2013-03-07 07:52:00
2:52 AM,28.0,24.1,85,30.37,10.0,NE,4.6,-,N/A,,Clear,40,2013-03-07 08:52:00
3:52 AM,28.9,23.0,78,30.39,10.0,Calm,Calm,-,N/A,,Clear,0,2013-03-07 09:52:00
4:52 AM,27.0,23.0,85,30.40,7.0,Calm,Calm,-,N/A,,Clear,0,2013-03-07 10:52:00
5:52 AM,26.1,21.9,84,30.41,5.0,Calm,Calm,-,N/A,,Clear,0,2013-03-07 11:52:00
6:52 AM,27.0,24.1,89,30.41,4.0,Calm,Calm,-,N/A,,Clear,0,2013-03-07 12:52:00
7:52 AM,30.9,26.1,82,30.42,6.0,NE,4.6,-,N/A,,Haze,50,2013-03-07 13:52:00
8:52 AM,33.1,25.0,72,30.43,10.0,East,5.8,-,N/A,,Mostly Cloudy,80,2013-03-07 14:52:00
9:52 AM,34.0,24.1,67,30.43,10.0,Calm,Calm,-,N/A,,Mostly Cloudy,0,2013-03-07 15:52:00
10:52 AM,37.0,25.0,62,30.44,10.0,Calm,Calm,-,N/A,,Mostly Cloudy,0,2013-03-07 16:52:00
11:52 AM,41.0,27.0,57,30.43,10.0,East,3.5,-,N/A,,Scattered Clouds,90,2013-03-07 17:52:00
11:59 AM,39.2,26.6,61,30.41,10.0,East,4.6,-,N/A,,Mostly Cloudy,80,2013-03-07 17:59:00
12:06 PM,39.2,24.8,56,30.40,10.0,Calm,Calm,-,N/A,,Scattered Clouds,0,2013-03-07 18:06:00
12:52 PM,42.1,27.0,55,30.40,10.0,Variable,5.8,-,N/A,,Scattered Clouds,0,2013-03-07 18:52:00
1:52 PM,44.1,28.0,53,30.37,10.0,ENE,5.8,-,N/A,,Partly Cloudy,70,2013-03-07 19:52:00
2:52 PM,45.0,28.0,52,30.36,10.0,ESE,5.8,-,N/A,,Partly Cloudy,120,2013-03-07 20:52:00
3:52 PM,45.0,25.0,46,30.34,10.0,SSE,3.5,-,N/A,,Clear,150,2013-03-07 21:52:00
4:52 PM,46.0,26.1,46,30.35,10.0,ENE,3.5,-,N/A,,Partly Cloudy,60,2013-03-07 22:52:00
5:52 PM,43.0,28.9,58,30.35,10.0,ENE,8.1,-,N/A,,Clear,70,2013-03-07 23:52:00
6:52 PM,39.0,28.0,65,30.36,10.0,East,6.9,-,N/A,,Clear,90,2013-03-08 00:52:00
7:52 PM,37.0,28.0,70,30.37,10.0,East,6.9,-,N/A,,Clear,100,2013-03-08 01:52:00
8:52 PM,36.0,27.0,70,30.36,10.0,East,6.9,-,N/A,,Clear,90,2013-03-08 02:52:00
9:52 PM,34.0,27.0,75,30.38,10.0,East,4.6,-,N/A,,Clear,100,2013-03-08 03:52:00
10:52 PM,33.1,26.1,75,30.38,10.0,East,4.6,-,N/A,,Clear,100,2013-03-08 04:52:00
11:52 PM,32.0,26.1,79,30.39,10.0,East,3.5,-,N/A,,Clear,90,2013-03-08 05:52:00